Simultaneous Nadir Overpasses (SNOs) Predictions

Prediction of SNOs between LANDSAT-8 and NOAA-19 Satellite Orbit:

Table of predicted SNOs for the next 14.0 days since TLE Epoch: 6/8/2024
Index Date (LANDSAT-8) Time (LANDSAT-8) Lat,Lon (LANDSAT-8) SZA (LANDSAT-8 ) Date (NOAA-19) Time (NOAA-19) Lat,Lon (NOAA-19) SZA (NOAA-19 ) Distance(km) Time Diff (sec)
1 06/09/2024 13:35:24 -80.69,-169.70 120.62 06/09/2024 13:34:31 -80.70,-169.54 120.62 3.01 53
2 06/09/2024 14:24:49 80.72, -1.68 59.45 06/09/2024 14:25:25 80.71, -1.82 59.44 2.67 36
3 06/11/2024 19:58:34 -80.68, 94.47 120.79 06/11/2024 19:57:26 -80.68, 94.36 120.83 1.90 68
4 06/11/2024 20:47:59 80.71, -97.53 59.27 06/11/2024 20:48:19 80.72, -97.42 59.29 2.14 20
5 06/14/2024 03:11:09 80.69, 166.42 59.09 06/14/2024 03:11:14 80.70, 166.55 59.12 2.53 5
6 06/16/2024 09:34:18 80.68, 70.53 58.97 06/16/2024 09:34:09 80.68, 70.42 58.96 1.94 9
7 06/18/2024 15:57:26 80.68, -25.22 58.92 06/18/2024 15:57:02 80.69, -25.08 58.93 2.54 24
8 06/18/2024 16:46:52 -80.72, 142.78 121.03 06/18/2024 16:48:01 -80.72, 142.80 121.00 0.34 69
9 06/20/2024 22:20:34 80.67,-121.15 58.86 06/20/2024 22:19:56 80.68,-121.03 58.87 2.33 38



Historial Predications of SNOs between LANDSAT-8 and NOAA-19
